"Pseudo-MPEC" for C1FQ095

Created 2026 Aug 21 13:35:04 UT using Find_Orb

Click here for an explanation of pseudo-MPECs

 
 Astrometry: 
     C1FQ095*1C2026 08 21.43281600 44 47.180+10 23 55.57   ~8LB5 21.38GVNEOCPV00
     C1FQ095 1C2026 08 21.43780300 44 47.065+10 23 51.04   ~8LB5 21.51GVNEOCPV00
     C1FQ095 1C2026 08 21.44276000 44 46.972+10 23 46.54   ~8LB5 21.47GVNEOCPV00
     C1FQ095 1C2026 08 21.44772200 44 46.878+10 23 42.29   ~8LB5 21.67GVNEOCPV00
     C1FQ095 1C2026 08 21.47632800 44 46.295+10 23 16.98   ~8LBo 22.66GVNEOCPV00
     C1FQ095 1C2026 08 21.47791300 44 46.255+10 23 15.86   ~8LBo 22.15GVNEOCPV00
     C1FQ095 1C2026 08 21.47931900 44 46.230+10 23 14.53   ~8LBo 21.58GVNEOCPV00

Station data:
(V00) Kitt Peak-Bok  (N31.963125 W111.600190)  US/Arizona. Measurers T.
   Beuden, V. F. Carvajal, D. Fay, J. B. Fazekas, D. C. Fuls, A. R. Gibbs, A.
   D. Grauer, H. Gröller, J. K. Hogan, R. A. Kowalski, S. M. Larson, G. J.
   Leonard, D. Rankin, R. L. Seaman, F. C. Shelly, K. W. Wierzchoś. 2.25-m
   reflector + 4x4K mosaic CCD.

Orbital elements:  C1FQ095
   Perihelion 2027 Jan 26.212610 +/- 187 TT =  5:06:09.5 (JD 2461431.712610)
Epoch 2026 Aug 21.0 TT = JDT 2461273.5   Earth MOID: 0.3211   Ve: 0.0498
M 291.911829717 +/- 60              (J2000 ecliptic)             AutoNEOCP
n   0.430358681 +/- 0.402           Peri.  317.349447 +/- 80
a   1.737463420 +/- 1.08            Node   176.996194 +/- 16
e   0.66823919 +/- 0.275            Incl.   39.207967 +/- 25
P   2.290/836.496d         H 19.07  G  0.15   U 12.2  SR
q 0.576422266 +/- 1.08    Q 2.898504574 +/- 39.2
From 7 observations 2026 Aug. 21 (67.0 min); mean residual 0".09
Residuals in arcseconds: 
260821 V00  .07+  .14+    260821 V00  .08+  .03-    260821 V00  .01-  .05+    
260821 V00  .13-  .00     260821 V00  .06+  .14-    
260821 V00  .02-  .15-    260821 V00  .06-  .13+    

Ephemerides (geocentric):
Date (UTC) HH   RA             Dec           delta  r     elong  mag " sig PA
---- --------  ------------   ------------  ------ ------ -----  --- --------
2026 08 21 14  00 44 44.508   +10 21 45.47  1.2008 2.0350 133.6 22.0 43.4 115
2026 08 21 15  00 44 43.755   +10 21 08.60  1.2001 2.0347 133.7 22.0 53.3 110
2026 08 21 16  00 44 42.998   +10 20 31.67  1.1994 2.0344 133.7 22.0 63.5 107
2026 08 21 17  00 44 42.237   +10 19 54.67  1.1987 2.0341 133.8 22.0 73.9 104
2026 08 21 18  00 44 41.472   +10 19 17.59  1.1980 2.0338 133.8 22.0 84.6 102
2026 08 21 19  00 44 40.703   +10 18 40.46  1.1973 2.0335 133.9 22.0 95.5 100
2026 08 21 20  00 44 39.930   +10 18 03.25  1.1966 2.0332 133.9 22.0  107  99
2026 08 21 21  00 44 39.153   +10 17 25.97  1.1959 2.0329 134.0 22.0  118  97
2026 08 21 22  00 44 38.371   +10 16 48.62  1.1952 2.0326 134.0 22.0  130  96
2026 08 21 23  00 44 37.586   +10 16 11.21  1.1945 2.0323 134.0 22.0  142  95
2026 08 22 00  00 44 36.796   +10 15 33.73  1.1939 2.0320 134.1 22.0  154  93
2026 08 22 01  00 44 36.002   +10 14 56.17  1.1932 2.0317 134.1 22.0  167  92
2026 08 22 02  00 44 35.205   +10 14 18.55  1.1925 2.0314 134.2 22.0  180  91
2026 08 22 03  00 44 34.403   +10 13 40.86  1.1918 2.0311 134.2 22.0  193  90
2026 08 22 04  00 44 33.597   +10 13 03.10  1.1911 2.0308 134.3 22.0  207  89
2026 08 22 05  00 44 32.786   +10 12 25.27  1.1904 2.0305 134.3 22.0  222  87
2026 08 22 06  00 44 31.972   +10 11 47.37  1.1897 2.0302 134.4 22.0  238  86
2026 08 22 07  00 44 31.154   +10 11 09.40  1.1890 2.0299 134.4 22.0  255  85
2026 08 22 08  00 44 30.331   +10 10 31.36  1.1883 2.0296 134.5 22.0  273  83
2026 08 22 09  00 44 29.504   +10 09 53.25  1.1876 2.0293 134.5 22.0  292  82
2026 08 22 10  00 44 28.674   +10 09 15.08  1.1869 2.0290 134.6 22.0  313  80
2026 08 22 11  00 44 27.839   +10 08 36.83  1.1863 2.0287 134.6 22.0  336  79
2026 08 22 12  00 44 26.999   +10 07 58.51  1.1856 2.0284 134.7 22.0  362  77
2026 08 22 13  00 44 26.156   +10 07 20.12  1.1849 2.0281 134.7 22.0  391  75
2026 08 22 14  00 44 25.309   +10 06 41.66  1.1842 2.0278 134.8 22.0  423  73
2026 08 22 15  00 44 24.457   +10 06 03.13  1.1835 2.0275 134.8 22.0  461  71
2026 08 22 16  00 44 23.601   +10 05 24.53  1.1828 2.0272 134.9 22.0  505  69
2026 08 22 17  00 44 22.741   +10 04 45.87  1.1821 2.0269 134.9 22.0  556  67
2026 08 22 18  00 44 21.877   +10 04 07.13  1.1814 2.0266 135.0 22.0  618  65
2026 08 22 19  00 44 21.009   +10 03 28.32  1.1807 2.0263 135.0 22.0  694  63
2026 08 22 20  00 44 20.136   +10 02 49.43  1.1801 2.0260 135.1 22.0  787  61
2026 08 22 21  00 44 19.260   +10 02 10.48  1.1794 2.0257 135.1 22.0  907  59
2026 08 22 22  00 44 18.379   +10 01 31.46  1.1787 2.0254 135.1 22.0 1064  57
2026 08 22 23  00 44 17.494   +10 00 52.37  1.1780 2.0251 135.2 22.0 1276  56
2026 08 23 00  00 44 16.606   +10 00 13.21  1.1773 2.0248 135.2 22.0 1581  54
2026 08 23 01  00 44 15.717   +09 59 34.01  1.1766 2.0245 135.3 22.0 2049  52
2026 08 23 02  00 44 14.828   +09 58 54.78  1.1759 2.0242 135.3 22.0 2854  51
2026 08 23 03  00 44 13.939   +09 58 15.49  1.1752 2.0239 135.4 22.0 4537  49
2026 08 23 04  00 44 13.049   +09 57 36.17  1.1746 2.0235 135.4 22.0 9968  48
2026 08 23 05  00 44 12.158   +09 56 56.80  1.1739 2.0232 135.5 22.0 765'  66
2026 08 23 06  00 44 11.267   +09 56 17.39  1.1732 2.0229 135.5 22.0 994'  79
2026 08 23 07  00 44 10.376   +09 55 37.94  1.1725 2.0226 135.6 22.0  17d  81
2026 08 23 08  00 44 09.483   +09 54 58.45  1.1718 2.0223 135.6 22.0  17d  82
2026 08 23 09  00 44 08.591   +09 54 18.91  1.1711 2.0220 135.7 22.0  17d  82
2026 08 23 10  00 44 07.698   +09 53 39.33  1.1704 2.0217 135.7 22.0  18d  82
2026 08 23 11  00 44 06.804   +09 52 59.71  1.1698 2.0214 135.8 22.0  18d  83
2026 08 23 12  00 44 05.910   +09 52 20.04  1.1691 2.0211 135.8 22.0  18d  83
2026 08 23 13  00 44 05.014   +09 51 40.32  1.1684 2.0208 135.9 22.0  18d  83